Probability
0 0 0 3 3 3 0 3 0 0 3 3 0 0 0 3 3 6 10 13 10 6 10 16 13 10 10 10 6 6 6 6 16 16 16 19 19 16 19 23 19 26 23
0 0 0 3 0 0 0 3 3 3 3 3 3 0 3 0 3 3 3 3 0 0 0 3 3 0 3 6 6 6 6 10 13 19 10 10 10 13 13 16 19 19 19
0 0 0 0 0 0 0 0 3 3 3 3 3 3 3 3 3 3 3 3 0 0 0 0 3 0 0 3 6 6 6 6 10 3 6 10 13 10 10 19 23 16 13
0 0 0 0 0 3 6 6 3 3 3 3 3 0 0 3 3 3 3 0 0 0 0 0 3 3 3 3 3 3 6 3 6 3 3 3 3 3 3 3 10 10 13
0 0 0 0 3 3 3 3 3 3 3 3 3 0 0 3 3 3 3 0 0 0 0 0 0 0 3 3 3 3 3 3 3 10 6 6 10 6 3 3 6 3 6
0 0 0 0 0 3 3 3 3 3 3 6 0 0 3 3 6 6 0 0 0 0 0 0 3 0 0 0 0 0 0 6 6 10 6 3 6 13 10 3 3 3 3
0 0 0 0 3 3 3 3 3 3 6 6 3 0 0 0 6 3 3 0 0 0 0 0 3 3 3 0 0 0 0 0 6 6 6 6 6 10 13 6 3 3 3
0 0 0 0 0 3 0 0 3 10 3 3 3 3 6 3 3 0 0 0 3 3 0 0 3 0 3 3 0 0 0 0 3 3 6 3 6 6 10 6 3 3 3
3 0 0 0 0 3 10 3 0 3 0 0 0 6 6 3 3 3 0 0 3 3 3 3 3 0 0 0 0 0 0 0 0 0 0 0 0 6 6 6 0 0 3
3 0 0 0 0 3 3 0 0 3 3 3 0 0 0 3 6 3 0 0 0 0 0 0 0 0 0 0 0 0 0 0 0 0 0 0 0 0 3 3 3 0 0
0 3 3 0 0 0 0 0 0 0 0 0 0 0 0 0 0 0 0 0 0 0 0 0 0 0 0 0 0 0 0 0 0 0 0 0 0 0 3 3 6 6 3
0 3 3 0 0 0 0 0 0 0 0 0 0 0 0 0 0 0 0 0 0 0 0 0 0 0 0 0 0 0 0 0 0 0 0 0 0 0 6 3 3 3 3
3 0 0 0 0 0 0 0 0 0 0 0 0 0 0 0 0 3 0 0 0 0 0 0 3 0 0 0 0 0 0 0 0 0 0 0 0 0 3 3 3 3 3
3 0 0 0 0 0 0 0 0 0 0 0 0 0 0 0 0 3 0 0 0 0 0 0 0 0 0 0 0 0 0 0 0 0 0 0 0 0 3 3 3 3 0
0 0 0 0 0 0 0 0 3 0 0 0 0 0 0 0 3 0 3 3 3 0 0 0 0 0 0 0 0 0 0 0 0 0 0 0 0 0 0 0 3 3 3
3 0 0 0 0 0 0 0 0 0 0 0 3 0 0 0 0 0 3 3 3 3 0 0 0 0 0 0 0 0 0 0 0 0 0 3 0 0 0 0 0 0 0
0 0 0 0 0 0 0 3 3 3 0 0 0 0 0 0 0 0 0 0 3 3 0 0 0 0 0 0 0 0 0 0 0 0 0 0 0 0 0 0 0 0 0
0 0 0 0 0 0 0 0 3 3 0 0 0 0 0 0 0 0 0 0 3 0 0 0 0 0 0 0 0 0 0 0 0 0 0 0 0 0 0 0 0 0 0
0 0 0 0 0 0 0 0 0 0 0 0 0 0 0 0 0 0 0 0 0 0 0 3 0 0 0 0 0 0 0 0 0 0 0 0 0 0 0 0 0 0 0
0 0 0 0 0 0 0 0 0 0 0 0 0 0 0 0 0 0 0 0 0 0 0 3 0 0 0 0 0 0 0 0 0 0 0 0 0 0 0 0 0 0 0
0 0 0 0 0 0 0 0 0 0 0 0 0 0 0 0 0 0 0 0 0 0 0 0 0 0 0 0 0 0 0 0 0 0 0 0 0 0 0 0 0 0 0
0 0 0 0 0 0 0 0 0 0 0 0 0 0 0 0 0 0 0 0 0 0 0 0 0 0 0 0 0 0 0 0 0 0 0 0 0 0 0 0 0 0 0
0 0 0 0 0 0 0 0 0 0 0 0 0 0 0 0 0 0 0 0 0 0 0 0 0 0 0 0 0 0 0 0 0 0 0 0 0 0 0 0 0 0 0
0 3 3 0 0 0 0 0 0 0 0 3 0 0 0 0 0 0 0 0 0 0 0 0 0 0 0 0 0 0 0 0 0 0 0 0 0 0 0 0 0 0 0
0 0 0 0 0 0 0 0 0 0 0 3 0 0 0 0 0 0 0 0 0 0 0 0 0 0 0 0 0 0 0 0 0 0 0 0 0 0 0 0 0 0 0
0 0 0 0 0 0 0 0 0 0 0 0 0 0 0 0 0 0 0 0 0 0 0 0 0 0 0 0 0 0 0 0 0 0 0 0 0 0 0 0 0 0 0
Height
5861 5861 5861 5861 5861 5861 5862 5862 5863 5863 5863 5864 5864 5864 5864 5864 5864 5863 5863 5862 5862 5861 5860 5860 5859 5858 5858 5857 5856 5856 5855 5854 5853 5853 5852 5851 5851 5850 5849 5849 5848 5846 5845
5859 5860 5860 5860 5860 5860 5860 5861 5861 5862 5862 5862 5863 5863 5863 5863 5862 5862 5862 5861 5861 5860 5859 5858 5857 5857 5856 5855 5854 5853 5852 5851 5850 5850 5849 5848 5847 5846 5846 5845 5845 5844 5843
5858 5858 5858 5859 5859 5859 5859 5860 5860 5860 5861 5861 5862 5862 5862 5862 5861 5861 5861 5860 5859 5859 5858 5857 5856 5855 5854 5853 5852 5851 5850 5849 5848 5847 5846 5845 5844 5843 5842 5842 5841 5841 5840
5856 5857 5857 5857 5857 5858 5858 5859 5859 5859 5860 5860 5861 5861 5861 5861 5861 5860 5860 5859 5858 5858 5857 5856 5855 5854 5853 5852 5851 5849 5848 5846 5845 5843 5842 5841 5840 5840 5839 5839 5838 5838 5837
5855 5855 5855 5856 5856 5857 5857 5858 5858 5859 5859 5859 5860 5860 5860 5860 5860 5859 5859 5858 5857 5856 5855 5855 5854 5853 5852 5850 5849 5847 5846 5844 5842 5840 5838 5838 5837 5837 5836 5836 5835 5834 5834
5854 5854 5854 5855 5855 5856 5856 5857 5857 5858 5858 5859 5859 5859 5859 5859 5859 5859 5858 5858 5857 5856 5855 5854 5853 5852 5851 5849 5848 5846 5844 5841 5839 5836 5834 5833 5834 5834 5833 5833 5832 5831 5830
5852 5853 5853 5854 5854 5855 5856 5856 5857 5857 5858 5858 5858 5859 5859 5859 5858 5858 5858 5857 5856 5855 5855 5854 5852 5851 5850 5848 5846 5844 5842 5840 5836 5832 5830 5830 5831 5832 5831 5830 5829 5828 5826
5851 5852 5852 5853 5854 5854 5855 5856 5856 5857 5857 5857 5858 5858 5858 5859 5858 5858 5857 5857 5856 5855 5854 5853 5852 5850 5849 5847 5845 5843 5841 5839 5836 5832 5831 5830 5831 5831 5830 5829 5827 5825 5823
5850 5851 5852 5852 5853 5854 5855 5855 5856 5856 5857 5857 5857 5858 5858 5858 5858 5857 5857 5856 5856 5855 5854 5853 5851 5850 5848 5847 5845 5843 5841 5839 5837 5834 5832 5831 5831 5830 5829 5828 5826 5824 5822
5850 5850 5851 5852 5852 5853 5854 5854 5855 5856 5856 5856 5856 5857 5857 5857 5857 5857 5857 5856 5855 5854 5853 5852 5851 5850 5848 5846 5844 5842 5841 5839 5837 5835 5833 5832 5831 5830 5828 5827 5826 5824 5822
5849 5850 5850 5851 5852 5852 5853 5854 5855 5855 5856 5856 5856 5856 5856 5856 5856 5856 5856 5856 5855 5854 5853 5852 5850 5849 5847 5846 5844 5842 5840 5839 5837 5835 5833 5832 5830 5829 5828 5826 5825 5824 5823
5848 5849 5849 5850 5851 5852 5853 5853 5854 5855 5855 5855 5856 5856 5856 5856 5856 5856 5855 5854 5854 5853 5852 5851 5850 5848 5847 5845 5843 5842 5840 5838 5837 5835 5834 5832 5831 5829 5828 5826 5825 5824 5822
5847 5848 5849 5849 5850 5851 5852 5853 5853 5854 5854 5855 5855 5855 5855 5855 5855 5855 5854 5854 5853 5852 5851 5850 5849 5847 5846 5845 5843 5841 5839 5838 5836 5834 5833 5832 5830 5829 5827 5826 5824 5823 5821
5846 5847 5848 5849 5849 5850 5851 5852 5852 5853 5854 5854 5854 5854 5854 5854 5854 5854 5853 5853 5852 5852 5851 5850 5848 5846 5845 5843 5842 5840 5838 5836 5835 5833 5832 5830 5829 5828 5826 5825 5823 5821 5820
5845 5846 5847 5847 5848 5849 5850 5851 5851 5852 5852 5853 5853 5853 5853 5853 5853 5853 5852 5852 5852 5851 5850 5848 5847 5845 5844 5842 5840 5838 5837 5835 5833 5832 5830 5829 5827 5826 5824 5822 5821 5819 5818
5843 5844 5845 5846 5847 5848 5849 5850 5850 5851 5851 5852 5852 5852 5852 5852 5851 5851 5851 5850 5850 5849 5848 5847 5845 5844 5842 5840 5838 5836 5835 5833 5831 5829 5828 5827 5825 5823 5822 5820 5819 5817 5815
5842 5843 5844 5845 5846 5847 5848 5849 5849 5849 5850 5850 5850 5850 5850 5850 5849 5849 5849 5848 5848 5847 5846 5845 5844 5842 5841 5839 5837 5835 5833 5831 5829 5827 5826 5824 5823 5821 5819 5818 5816 5814 5812
5840 5841 5842 5843 5845 5846 5846 5847 5847 5848 5848 5848 5849 5849 5848 5848 5848 5847 5847 5846 5846 5845 5844 5843 5842 5841 5839 5837 5835 5833 5831 5829 5827 5826 5824 5822 5820 5819 5817 5815 5813 5811 5809
5838 5839 5841 5842 5843 5844 5845 5845 5846 5846 5846 5847 5847 5847 5847 5846 5846 5846 5845 5845 5844 5843 5842 5841 5840 5839 5837 5835 5833 5831 5829 5827 5826 5823 5822 5820 5818 5816 5814 5812 5810 5807 5805
5836 5837 5838 5840 5841 5842 5842 5843 5844 5844 5845 5845 5845 5845 5845 5845 5845 5844 5843 5843 5842 5841 5840 5839 5838 5836 5835 5833 5831 5829 5827 5825 5823 5821 5819 5817 5815 5813 5811 5808 5806 5804 5801
5834 5835 5836 5837 5838 5839 5840 5841 5842 5842 5843 5843 5843 5843 5843 5843 5843 5842 5841 5841 5840 5839 5838 5836 5835 5834 5832 5830 5828 5826 5824 5822 5820 5818 5815 5813 5811 5809 5807 5804 5802 5799 5796
5831 5832 5833 5835 5836 5837 5838 5839 5840 5840 5841 5841 5841 5841 5841 5841 5840 5839 5839 5838 5837 5836 5835 5834 5832 5830 5828 5827 5824 5822 5820 5818 5816 5814 5811 5809 5806 5804 5801 5799 5796 5794 5791
5828 5829 5831 5832 5833 5834 5835 5836 5837 5838 5838 5839 5839 5839 5838 5838 5837 5837 5836 5835 5834 5833 5832 5830 5829 5827 5825 5823 5821 5819 5816 5814 5812 5809 5807 5804 5802 5799 5796 5793 5790 5787 5784
5825 5827 5828 5829 5830 5831 5832 5833 5834 5835 5835 5835 5836 5836 5835 5835 5834 5833 5832 5832 5831 5829 5828 5827 5825 5823 5821 5819 5817 5815 5812 5810 5808 5805 5802 5800 5797 5793 5790 5787 5784 5781 5778
5822 5824 5825 5826 5827 5828 5829 5830 5831 5831 5832 5832 5832 5832 5831 5831 5830 5830 5829 5828 5827 5826 5824 5823 5821 5819 5817 5815 5813 5811 5808 5806 5803 5800 5797 5794 5791 5788 5784 5781 5777 5774 5770
5819 5820 5822 5823 5824 5825 5826 5826 5827 5827 5828 5828 5828 5828 5827 5827 5826 5825 5825 5824 5823 5822 5820 5819 5817 5815 5813 5811 5809 5806 5804 5801 5798 5795 5792 5789 5785 5782 5778 5774 5770 5766 5762
Wind_Speed
7 7 7 7 8 9 9 8 8 8 7 7 7 6 6 6 6 6 6 6 6 6 7 7 7 8 9 9 10 10 12 13 14 14 15 16 16 16 16 16 15 15 15
7 6 6 6 6 7 8 8 8 8 7 7 6 6 6 5 5 5 6 6 6 6 6 7 7 8 8 8 9 10 10 11 12 13 14 15 16 16 16 15 15 16 15
7 7 6 6 7 7 7 8 8 7 7 6 6 5 5 5 4 5 5 5 6 6 6 6 6 7 7 8 9 9 10 10 11 12 14 14 15 15 15 15 15 15 15
7 6 6 6 6 6 6 6 7 6 6 6 5 5 5 4 4 4 4 5 5 5 5 5 6 6 7 8 8 9 10 10 11 12 13 14 14 14 14 14 15 15 15
6 6 6 6 6 6 6 7 7 6 6 6 5 5 4 4 4 4 3 3 4 5 5 5 5 5 6 7 8 9 9 10 10 11 11 12 12 12 12 13 14 14 15
6 6 6 6 6 6 6 6 6 6 6 5 5 5 4 4 4 3 3 3 4 4 4 5 5 6 6 7 8 9 9 10 11 11 10 9 10 10 11 11 13 13 14
6 6 6 6 6 6 5 5 5 5 5 5 5 4 4 3 3 3 3 3 3 3 4 5 5 5 6 7 7 8 8 9 10 9 7 7 7 8 9 10 11 11 12
6 6 6 6 6 6 5 5 5 5 5 5 4 4 3 3 3 2 2 3 3 3 4 5 5 5 6 6 6 7 7 8 8 8 6 5 5 6 6 7 9 9 10
6 6 6 6 6 6 5 5 5 5 5 4 4 3 3 2 2 2 2 2 3 4 4 4 5 5 6 6 6 6 7 7 7 7 6 5 4 4 5 6 7 7 8
6 6 6 6 6 6 6 5 5 5 4 4 4 3 3 2 2 2 2 2 3 4 4 4 4 4 5 6 6 7 7 7 7 7 6 6 5 5 6 6 6 6 6
6 6 6 7 6 6 6 5 5 5 4 3 3 3 3 2 2 2 2 3 3 4 4 4 4 5 5 6 6 7 7 7 6 6 6 7 6 6 6 6 6 6 6
7 7 6 6 6 6 6 5 5 5 4 4 4 3 3 3 3 3 3 3 3 3 3 4 4 5 5 5 6 6 7 7 6 6 7 7 7 7 8 8 8 8 8
7 7 7 6 6 6 6 6 6 5 5 4 4 3 3 3 3 4 3 3 3 3 3 4 5 5 5 6 6 6 6 7 7 7 8 8 8 9 9 9 9 9 9
7 8 7 7 6 6 6 6 6 6 5 5 5 4 4 4 4 4 3 3 3 4 5 5 6 6 7 7 8 8 8 8 8 9 9 9 9 10 10 10 10 10 11
8 8 8 7 7 7 7 6 6 6 6 5 5 5 5 5 4 4 4 5 5 5 6 6 7 7 8 9 9 10 10 9 9 10 10 10 11 11 11 11 11 11 12
8 8 8 7 7 7 7 6 6 6 5 5 5 5 5 5 5 6 6 6 6 6 7 7 8 8 9 9 9 10 10 10 10 10 10 11 11 11 12 12 12 13 13
9 8 8 8 7 7 7 7 6 6 6 6 5 5 5 6 6 6 7 7 7 7 7 8 8 9 9 10 10 10 10 10 10 11 11 11 11 12 13 13 13 14 14
10 9 8 9 8 8 7 7 7 6 6 6 6 5 5 6 5 6 7 7 7 7 7 7 8 8 9 9 10 10 10 11 11 12 12 12 13 13 14 14 15 15 16
10 10 9 8 8 8 8 8 7 7 6 6 6 6 6 5 5 6 6 7 7 7 7 8 9 9 10 10 11 11 11 12 12 13 13 14 14 15 15 16 16 17 18
11 11 10 9 9 9 9 8 7 7 6 6 6 5 6 6 6 6 7 7 8 8 9 9 10 10 11 12 12 13 13 13 14 15 15 15 16 17 17 18 18 19 20
11 11 11 11 10 9 9 9 8 7 7 6 5 5 6 6 7 8 8 9 9 10 10 11 11 12 13 14 14 14 14 15 16 16 17 17 18 18 19 19 20 21 22
12 11 11 11 11 11 10 9 9 9 8 7 7 7 7 8 9 9 9 10 10 11 11 12 12 13 14 15 15 15 16 16 17 17 18 19 20 20 21 22 22 23 24
11 11 11 12 12 12 12 11 10 11 10 9 9 9 10 10 10 11 11 11 11 11 12 13 13 14 15 16 16 17 17 17 17 18 19 20 21 22 23 24 25 25 26
11 11 12 12 13 13 13 13 12 12 12 11 11 12 12 12 12 12 12 12 12 12 13 13 14 15 15 16 17 17 17 18 19 20 21 22 23 24 25 26 26 27 28
11 12 12 13 13 13 14 14 13 13 13 13 13 13 13 14 14 14 14 14 14 14 15 15 16 16 17 17 18 18 19 20 21 21 22 23 24 25 26 27 28 29 30
13 13 13 13 13 13 13 14 14 14 15 14 14 15 15 15 15 15 15 15 15 15 16 16 17 18 18 19 19 19 20 21 22 22 23 25 26 27 27 28 30 31 32
Wind_Direction
257 247 242 244 243 243 241 237 232 237 244 244 247 253 259 263 266 266 267 272 279 284 289 289 290 290 290 284 282 282 280 275 270 268 269 269 270 268 267 266 267 269 267
252 245 241 240 240 237 235 232 234 238 237 243 248 249 249 254 258 262 267 272 281 289 291 291 292 296 298 295 288 286 287 281 276 273 272 273 270 268 269 268 267 265 266
249 245 242 239 236 234 232 232 231 227 228 233 236 235 242 248 255 267 270 273 282 290 295 296 295 296 297 300 296 289 289 288 283 279 276 278 273 268 269 269 268 265 266
243 239 239 235 231 228 227 224 220 216 220 226 231 235 239 247 257 269 275 275 284 290 296 295 299 300 302 305 303 296 294 291 290 286 284 281 277 271 270 271 271 270 267
239 233 229 229 224 219 215 217 219 217 219 223 231 232 232 239 254 259 269 285 294 298 301 304 312 315 315 312 309 309 304 297 295 294 288 280 280 276 273 273 272 271 272
236 231 226 224 217 211 212 214 215 215 217 219 222 221 223 232 246 258 275 291 301 310 321 327 328 326 323 320 316 316 313 308 305 301 290 283 284 282 282 278 274 272 273
228 226 226 221 212 208 205 209 212 212 212 213 214 213 219 232 247 253 275 294 300 308 319 327 327 329 326 326 324 321 321 323 319 316 302 288 285 284 285 283 282 277 273
225 221 213 202 199 198 204 211 213 204 204 202 201 205 209 229 245 258 282 298 310 318 325 325 322 329 331 332 335 335 331 330 334 332 325 305 296 296 294 288 287 285 277
223 214 205 201 198 198 203 206 206 204 203 199 200 203 209 214 224 254 278 297 310 318 320 326 330 330 333 339 342 344 346 343 342 340 337 342 324 309 308 305 304 298 288
219 217 213 208 198 196 199 201 199 206 207 203 198 203 213 220 235 257 275 294 305 312 317 317 321 325 330 341 350 349 349 349 348 348 344 338 331 326 317 308 310 307 300
217 214 214 210 201 196 191 194 200 201 200 202 206 213 219 227 241 260 278 296 304 315 319 319 320 324 328 337 351 351 351 345 341 339 339 337 332 328 325 322 319 312 308
216 207 202 200 195 193 192 196 196 199 202 210 217 221 226 232 244 263 279 293 304 311 316 317 318 319 324 335 345 348 346 343 336 331 332 332 330 330 328 324 327 324 318
211 208 204 198 198 204 209 211 211 213 214 217 221 231 235 241 250 261 273 283 297 308 311 315 319 322 321 323 332 339 340 339 332 327 326 326 325 324 323 322 320 320 319
214 213 212 210 209 209 213 217 221 224 227 231 239 241 244 249 253 259 265 274 288 295 302 307 309 313 315 316 319 325 325 322 320 318 317 318 316 314 314 314 315 314 313
216 216 215 215 212 210 212 216 223 228 231 234 237 238 245 250 254 259 266 276 286 290 297 303 307 310 312 311 312 315 318 317 317 316 315 315 315 313 313 313 311 310 309
213 213 213 211 210 211 215 218 223 229 231 237 240 242 250 258 263 266 271 277 282 288 297 301 305 308 313 314 313 313 313 315 314 315 314 312 311 309 307 308 307 306 305
215 215 217 214 213 217 223 227 231 234 237 242 248 253 259 265 266 271 277 281 280 286 294 298 300 305 311 314 318 318 320 321 320 319 317 315 312 309 307 308 308 308 309
222 224 223 217 217 220 227 231 236 240 242 245 250 257 264 267 271 277 281 285 286 289 295 298 301 307 311 316 319 317 316 318 317 315 313 313 313 312 311 311 309 309 310
226 226 224 221 222 225 230 235 238 240 245 246 250 259 266 270 274 279 284 286 288 290 295 296 299 304 308 313 314 313 311 312 311 311 312 311 310 309 309 309 308 308 308
227 227 228 229 230 230 233 234 234 238 242 242 249 261 267 273 277 281 282 284 286 289 291 294 297 302 307 308 309 308 305 305 307 309 307 307 307 306 306 305 306 307 306
228 228 229 231 230 229 229 229 229 234 236 241 252 263 271 277 277 277 280 284 286 288 290 295 298 301 304 306 307 306 305 303 305 306 304 304 304 304 303 303 304 305 305
230 232 231 232 231 229 228 230 230 233 238 245 255 266 274 280 281 280 282 287 287 287 289 293 297 301 304 305 306 306 306 306 306 305 304 304 305 304 304 303 303 303 303
231 232 233 234 233 232 232 232 237 240 243 248 258 269 274 279 282 284 284 287 290 290 291 296 300 302 304 306 305 305 305 306 306 306 306 306 306 306 305 304 304 303 303
231 234 236 235 233 232 235 237 241 245 250 254 262 271 274 278 282 284 284 285 288 290 293 297 299 301 304 305 306 306 305 305 306 306 306 306 306 306 305 305 304 304 304
232 234 233 235 236 237 240 243 246 248 253 257 265 272 274 277 281 281 283 283 285 288 290 293 296 300 303 305 307 306 306 307 307 306 306 308 308 307 307 307 306 305 305
236 236 235 236 238 240 243 246 248 253 256 259 264 269 273 277 278 280 281 282 285 287 289 291 294 298 301 303 305 305 307 307 307 306 307 308 309 308 309 309 308 307 306